Flag for Brazil Weather past 2 weeks in Salvador, Bahia, Brazil

Now
77 °F

Passing clouds.


Feels Like: 78 °F
Forecast: N/A
Wind: 9 mph from East

Location: Salvador Aeroporto

Current Time: Sep 2, 2014 at 8:56:39 PM

Latest Report: Sep 2, 2014 at 8:00 PM


Visibility: N/A

Pressure: 29.95 "Hg

Humidity: 89%

Dew point: 73 °F

Location of SalvadorLocation

Historic Weather in Salvador — Graph

°F

Salvador temperature yesterday

Maximum temperature yesterday: 82 °F (at 12:00 PM)
Minimum temperature yesterday: 70 °F (at 4:00 AM)
Average temperature yesterday: 76 °F

Past Weeks' High & Low Weather Summary

 TemperatureHumidityPressure
High82 °F (Aug 28, 11:00 AM)100% (Aug 25, 2:00 PM)30.15 "Hg (Aug 25, 2:00 PM)
Low39 °F (Aug 25, 2:00 PM)54% (Aug 23, 3:00 PM)29.89 "Hg (Sep 2, 2:00 PM)
Average77 °F77%30.05 "Hg
* Reported Aug 18 7:00 PM — Sep 2 7:00 PM, Salvador, Weather by CustomWeather, © 2014

Note: Actual official high and low records may vary slightly from our data, if they occured in-between our weather recording intervals... More about our weather records

Advertising

Salvador weather history for previous 24 hours

 ConditionsComfort  
Time TempWeatherWind HumidityBarometerVisibility
7:00 PM
Sep 2
77 °FPassing clouds.10 mph89%29.92 "HgN/A
6:00 PM77 °FPassing clouds.13 mph89%29.92 "HgN/A
5:00 PM79 °FPassing clouds.10 mph84%29.92 "HgN/A
4:00 PM81 °FPassing clouds.15 mph79%29.89 "HgN/A
3:00 PM81 °FPassing clouds.18 mph79%29.89 "HgN/A
2:00 PM81 °FPassing clouds.17 mph79%29.89 "HgN/A
1:00 PM82 °FPassing clouds.17 mph70%29.92 "HgN/A
12:00 PM82 °FPassing clouds.17 mph70%29.95 "HgN/A
11:00 AM82 °FScattered clouds.15 mph70%29.98 "HgN/A
10:00 AM82 °FPassing clouds.7 mph66%30.01 "HgN/A
9:00 AM81 °FPassing clouds.6 mph74%30.01 "HgN/A
8:00 AM77 °FSunny.8 mph79%30.01 "Hg10 mi
7:00 AM72 °FSunny.7 mph94%29.98 "Hg10 mi
6:00 AM70 °FSunny.2 mph94%29.98 "Hg10 mi
5:00 AM70 °FClear.2 mph94%29.95 "Hg10 mi
4:00 AM70 °FClear.3 mph94%29.95 "Hg10 mi
3:00 AM70 °FClear.2 mph94%29.95 "Hg10 mi
2:00 AM72 °FClear.5 mph88%29.95 "Hg10 mi
1:00 AM72 °FClear.6 mph88%29.98 "Hg10 mi
12:00 AM72 °FClear.5 mph88%29.98 "Hg10 mi
11:00 PM
Sep 1
73 °FClear.6 mph89%29.98 "Hg10 mi
10:00 PM73 °FClear.5 mph89%29.98 "Hg10 mi
9:00 PM75 °FPassing clouds.5 mph83%29.98 "HgN/A
8:00 PM77 °FClear.9 mph79%29.98 "Hg10 mi
Weather by CustomWeather, © 2014

See weather overviewHow to use our weather pages